SWA1031 KSDF-KBNA

Flight info

Callsign SWA1031
Flight time 0h 39m
Altitude 30000
Route GTGON1 GTGON LOONE RYYMN3
Aircraft B737/M-SDE2E3FGHIRWXY/LB1

Departure

Time 2026-05-07 04:10
Airport Louisville Muhammad Ali International Airport (KSDF)

Arrival

Time 2026-05-07 04:49
Airport Nashville International Airport (KBNA)
Time Latitude Longitude Altitude Speed Heading
2026-05-07 03:47 38.18272 -85.74063 487 ft 0 kts 273°
2026-05-07 03:59 38.18272 -85.74048 487 ft 2 kts 273°
2026-05-07 03:59 38.18271 -85.74027 486 ft 2 kts 273°
2026-05-07 03:59 38.18270 -85.74006 481 ft 2 kts 257°
2026-05-07 04:00 38.18277 -85.73990 481 ft 1 kts 197°
2026-05-07 04:00 38.18283 -85.73987 479 ft 0 kts 186°
2026-05-07 04:02 38.18283 -85.73988 488 ft 1 kts 186°
2026-05-07 04:02 38.18267 -85.73988 479 ft 5 kts 174°
2026-05-07 04:02 38.18217 -85.73972 485 ft 8 kts 203°
2026-05-07 04:02 38.18181 -85.74038 485 ft 10 kts 239°
2026-05-07 04:03 38.18142 -85.74122 485 ft 12 kts 239°
2026-05-07 04:03 38.18096 -85.74224 485 ft 14 kts 248°
2026-05-07 04:03 38.18069 -85.74340 488 ft 13 kts 255°
2026-05-07 04:03 38.18047 -85.74453 489 ft 13 kts 256°
2026-05-07 04:04 38.18011 -85.74490 485 ft 7 kts 173°
2026-05-07 04:04 38.17957 -85.74472 484 ft 11 kts 165°
2026-05-07 04:04 38.17859 -85.74439 489 ft 17 kts 165°
2026-05-07 04:04 38.17737 -85.74400 485 ft 19 kts 166°
2026-05-07 04:05 38.17605 -85.74356 485 ft 19 kts 165°
2026-05-07 04:05 38.17476 -85.74314 481 ft 19 kts 165°
2026-05-07 04:05 38.17342 -85.74268 479 ft 21 kts 165°
2026-05-07 04:05 38.17199 -85.74222 478 ft 22 kts 166°
2026-05-07 04:06 38.17047 -85.74172 473 ft 23 kts 165°
2026-05-07 04:06 38.16894 -85.74122 476 ft 22 kts 165°
2026-05-07 04:06 38.16741 -85.74072 474 ft 23 kts 165°
2026-05-07 04:06 38.16591 -85.74023 476 ft 23 kts 166°
2026-05-07 04:07 38.16427 -85.73967 473 ft 26 kts 165°
2026-05-07 04:07 38.16246 -85.73908 472 ft 28 kts 166°
2026-05-07 04:07 38.16055 -85.73845 470 ft 28 kts 165°
2026-05-07 04:07 38.15889 -85.73784 470 ft 19 kts 144°
2026-05-07 04:08 38.15880 -85.73709 470 ft 8 kts
2026-05-07 04:08 38.15888 -85.73750 471 ft 5 kts 246°
2026-05-07 04:08 38.15870 -85.73797 470 ft 7 kts 234°
2026-05-07 04:08 38.15840 -85.73864 466 ft 10 kts 253°
2026-05-07 04:09 38.15851 -85.73939 466 ft 9 kts 339°
2026-05-07 04:09 38.16075 -85.74014 471 ft 68 kts 345°
2026-05-07 04:09 38.16762 -85.74241 476 ft 134 kts 345°
2026-05-07 04:09 38.17831 -85.74591 652 ft 173 kts 346°
2026-05-07 04:10 38.18991 -85.74956 1576 ft 167 kts 346°
2026-05-07 04:10 38.20076 -85.75318 2553 ft 160 kts 341°
2026-05-07 04:10 38.21120 -85.76008 2996 ft 185 kts 329°
2026-05-07 04:10 38.22313 -85.76897 3279 ft 213 kts 329°
2026-05-07 04:11 38.23681 -85.77903 3543 ft 241 kts 329°
2026-05-07 04:11 38.25193 -85.79013 4138 ft 255 kts 329°
2026-05-07 04:11 38.26701 -85.80124 5022 ft 258 kts 327°
2026-05-07 04:11 38.27970 -85.81751 5946 ft 258 kts 299°
2026-05-07 04:12 38.28545 -85.83891 6924 ft 258 kts 276°
2026-05-07 04:12 38.28537 -85.86147 8063 ft 251 kts 266°
2026-05-07 04:12 38.28310 -85.88323 9238 ft 248 kts 252°
2026-05-07 04:12 38.27521 -85.90264 10353 ft 249 kts 238°
2026-05-07 04:13 38.26231 -85.91880 10911 ft 274 kts 223°
2026-05-07 04:13 38.24614 -85.93396 11113 ft 304 kts 221°
2026-05-07 04:13 38.22830 -85.95033 11321 ft 328 kts 222°
2026-05-07 04:13 38.21213 -85.97112 11836 ft 332 kts 238°
2026-05-07 04:14 38.20159 -85.99694 12750 ft 328 kts 250°
2026-05-07 04:14 38.19332 -86.02390 13716 ft 327 kts 251°
2026-05-07 04:14 38.18541 -86.05105 14528 ft 328 kts 251°
2026-05-07 04:14 38.17749 -86.07839 15322 ft 331 kts 251°
2026-05-07 04:15 38.16948 -86.10586 16122 ft 332 kts 251°
2026-05-07 04:15 38.16135 -86.13342 16907 ft 334 kts 250°
2026-05-07 04:15 38.15311 -86.16111 17652 ft 337 kts 250°
2026-05-07 04:15 38.14474 -86.18909 18381 ft 339 kts 250°
2026-05-07 04:16 38.13916 -86.20769 18797 ft 340 kts 250°
2026-05-07 04:16 38.13071 -86.23578 19352 ft 341 kts 250°
2026-05-07 04:16 38.12219 -86.26404 19856 ft 342 kts 250°
2026-05-07 04:16 38.11368 -86.29222 20358 ft 343 kts 250°
2026-05-07 04:17 38.10509 -86.32065 20845 ft 345 kts 250°
2026-05-07 04:17 38.09650 -86.34904 21300 ft 347 kts 250°
2026-05-07 04:17 38.08780 -86.37778 21751 ft 348 kts 250°
2026-05-07 04:17 38.07914 -86.40633 22225 ft 348 kts 250°
2026-05-07 04:18 38.07039 -86.43517 22665 ft 349 kts 250°
2026-05-07 04:18 38.06165 -86.46396 23022 ft 351 kts 250°
2026-05-07 04:18 38.05292 -86.49267 23388 ft 353 kts 250°
2026-05-07 04:18 38.04406 -86.52176 23751 ft 353 kts 250°
2026-05-07 04:19 38.03331 -86.54993 23997 ft 359 kts 240°
2026-05-07 04:19 38.01753 -86.57481 24277 ft 366 kts 232°
2026-05-07 04:19 37.99822 -86.59655 24527 ft 376 kts 223°
2026-05-07 04:19 37.97514 -86.61334 24810 ft 386 kts 216°
2026-05-07 04:20 37.95079 -86.62805 25066 ft 390 kts 214°
2026-05-07 04:20 37.92598 -86.64245 25258 ft 393 kts 214°
2026-05-07 04:20 37.90104 -86.65693 25485 ft 395 kts 215°
2026-05-07 04:21 37.85116 -86.68644 25959 ft 397 kts 215°
2026-05-07 04:21 37.82650 -86.70122 26156 ft 398 kts 215°
2026-05-07 04:21 37.80139 -86.71633 26344 ft 400 kts 216°
2026-05-07 04:21 37.77622 -86.73147 26548 ft 402 kts 216°
2026-05-07 04:22 37.75098 -86.74661 26755 ft 402 kts 216°
2026-05-07 04:22 37.72619 -86.76281 26963 ft 396 kts 220°
2026-05-07 04:22 37.70325 -86.78172 27218 ft 393 kts 223°
2026-05-07 04:22 37.68083 -86.80127 27497 ft 391 kts 224°
2026-05-07 04:23 37.65854 -86.82088 27800 ft 390 kts 224°
2026-05-07 04:23 37.63627 -86.84034 28054 ft 390 kts 224°
2026-05-07 04:23 37.59127 -86.87914 28059 ft 391 kts 223°
2026-05-07 04:24 37.54626 -86.91747 27891 ft 392 kts 223°
2026-05-07 04:24 37.52361 -86.93671 27637 ft 392 kts 223°
2026-05-07 04:24 37.50095 -86.95593 27380 ft 393 kts 223°
2026-05-07 04:25 37.47822 -86.97521 27129 ft 395 kts 223°
2026-05-07 04:25 37.45542 -86.99452 26873 ft 395 kts 223°
2026-05-07 04:25 37.43298 -87.01351 26061 ft 393 kts 222°
2026-05-07 04:25 37.41104 -87.03193 25843 ft 365 kts 223°
2026-05-07 04:26 37.39036 -87.04928 25176 ft 352 kts 223°
2026-05-07 04:26 37.36988 -87.06557 24476 ft 351 kts 216°
2026-05-07 04:26 37.34686 -87.07650 23812 ft 358 kts 205°
2026-05-07 04:26 37.32177 -87.08093 23044 ft 367 kts 196°
2026-05-07 04:27 37.29637 -87.08218 22259 ft 364 kts 193°
2026-05-07 04:27 37.27117 -87.08275 21498 ft 360 kts 193°
2026-05-07 04:27 37.24631 -87.08321 20761 ft 355 kts 193°
2026-05-07 04:27 37.22169 -87.08377 20031 ft 351 kts 193°
2026-05-07 04:28 37.19746 -87.08445 19327 ft 347 kts 193°
2026-05-07 04:28 37.17340 -87.08523 18634 ft 344 kts 192°
2026-05-07 04:28 37.14960 -87.08606 17890 ft 340 kts 192°
2026-05-07 04:28 37.12609 -87.08691 17105 ft 337 kts 192°
2026-05-07 04:29 37.10268 -87.08778 16360 ft 335 kts 192°
2026-05-07 04:29 37.07942 -87.08865 15694 ft 332 kts 192°
2026-05-07 04:29 37.05616 -87.08956 15501 ft 336 kts 192°
2026-05-07 04:29 37.03275 -87.09046 15382 ft 336 kts 192°
2026-05-07 04:30 37.00938 -87.09133 15297 ft 335 kts 192°
2026-05-07 04:30 36.98617 -87.09218 15318 ft 334 kts 192°
2026-05-07 04:30 36.96279 -87.09306 15322 ft 336 kts 192°
2026-05-07 04:30 36.93925 -87.09396 15328 ft 344 kts 192°
2026-05-07 04:31 36.91484 -87.09495 15205 ft 364 kts 191°
2026-05-07 04:31 36.88869 -87.09602 15059 ft 384 kts 190°
2026-05-07 04:31 36.86240 -87.09691 15000 ft 377 kts 190°
2026-05-07 04:31 36.83680 -87.09765 14983 ft 360 kts 190°
2026-05-07 04:32 36.81218 -87.09414 14945 ft 356 kts 174°
2026-05-07 04:32 36.78909 -87.08217 14712 ft 359 kts 163°
2026-05-07 04:32 36.76684 -87.06817 14486 ft 358 kts 162°
2026-05-07 04:32 36.74451 -87.05395 14269 ft 362 kts 162°
2026-05-07 04:33 36.72190 -87.03977 14034 ft 366 kts 162°
2026-05-07 04:33 36.69916 -87.02572 13795 ft 365 kts 162°
2026-05-07 04:33 36.67638 -87.01176 13531 ft 363 kts 162°
2026-05-07 04:33 36.65375 -86.99792 13283 ft 362 kts 162°
2026-05-07 04:34 36.63121 -86.98417 13041 ft 360 kts 162°
2026-05-07 04:34 36.60879 -86.97048 12821 ft 358 kts 162°
2026-05-07 04:34 36.58645 -86.95687 12587 ft 357 kts 162°
2026-05-07 04:34 36.56426 -86.94336 12357 ft 355 kts 162°
2026-05-07 04:35 36.54206 -86.92985 12138 ft 353 kts 162°
2026-05-07 04:35 36.52006 -86.91647 11918 ft 353 kts 162°
2026-05-07 04:35 36.49805 -86.90310 11690 ft 352 kts 162°
2026-05-07 04:35 36.47610 -86.88976 11467 ft 351 kts 162°
2026-05-07 04:36 36.45421 -86.87647 11247 ft 349 kts 162°
2026-05-07 04:36 36.43243 -86.86325 11008 ft 348 kts 161°
2026-05-07 04:36 36.41063 -86.85003 10796 ft 347 kts 161°
2026-05-07 04:36 36.38892 -86.83687 10573 ft 346 kts 161°
2026-05-07 04:37 36.36783 -86.82403 10331 ft 328 kts 162°
2026-05-07 04:37 36.34790 -86.81188 10136 ft 311 kts 162°
2026-05-07 04:37 36.32893 -86.80038 9927 ft 296 kts 162°
2026-05-07 04:37 36.31080 -86.78943 9718 ft 286 kts 162°
2026-05-07 04:38 36.29302 -86.77874 9550 ft 282 kts 162°
2026-05-07 04:38 36.27529 -86.76809 9367 ft 285 kts 162°
2026-05-07 04:38 36.25735 -86.75734 9191 ft 285 kts 164°
2026-05-07 04:38 36.23913 -86.75183 8976 ft 257 kts 188°
2026-05-07 04:39 36.22234 -86.75490 8831 ft 237 kts 204°
2026-05-07 04:39 36.20668 -86.76072 8695 ft 236 kts 205°
2026-05-07 04:39 36.19081 -86.76680 8548 ft 241 kts 205°
2026-05-07 04:39 36.17457 -86.77295 8424 ft 245 kts 205°
2026-05-07 04:40 36.15846 -86.77895 8241 ft 236 kts 205°
2026-05-07 04:40 36.14330 -86.78452 8099 ft 227 kts 205°
2026-05-07 04:40 36.12826 -86.79020 8064 ft 219 kts 208°
2026-05-07 04:40 36.11420 -86.79734 8032 ft 217 kts 212°
2026-05-07 04:41 36.10061 -86.80507 8002 ft 213 kts 213°
2026-05-07 04:41 36.08753 -86.81287 7985 ft 212 kts 214°
2026-05-07 04:41 36.07390 -86.82102 7762 ft 221 kts 212°
2026-05-07 04:41 36.05929 -86.82808 7308 ft 229 kts 203°
2026-05-07 04:42 36.04375 -86.83265 6878 ft 227 kts 200°
2026-05-07 04:42 36.02842 -86.83674 6449 ft 224 kts 200°
2026-05-07 04:42 36.01356 -86.84065 6023 ft 219 kts 199°
2026-05-07 04:42 35.99870 -86.84461 5584 ft 218 kts 199°
2026-05-07 04:43 35.98392 -86.84868 5142 ft 217 kts 199°
2026-05-07 04:43 35.96929 -86.85290 4716 ft 215 kts 199°
2026-05-07 04:43 35.95411 -86.85393 4251 ft 223 kts 180°
2026-05-07 04:43 35.93889 -86.85028 3799 ft 227 kts 167°
2026-05-07 04:44 35.92528 -86.83971 3363 ft 237 kts 142°
2026-05-07 04:44 35.91640 -86.82254 3063 ft 238 kts 116°
2026-05-07 04:44 35.91268 -86.80291 3024 ft 238 kts 107°
2026-05-07 04:44 35.91100 -86.78243 2989 ft 242 kts 91°
2026-05-07 04:45 35.91728 -86.76322 3001 ft 251 kts 50°
2026-05-07 04:45 35.93189 -86.75213 3026 ft 248 kts 10°
2026-05-07 04:45 35.94882 -86.74806 2998 ft 246 kts
2026-05-07 04:45 35.96485 -86.74344 2953 ft 224 kts 12°
2026-05-07 04:46 35.97880 -86.73807 2967 ft 197 kts 14°
2026-05-07 04:46 35.99117 -86.73304 3032 ft 183 kts 13°
2026-05-07 04:46 36.00366 -86.72805 2781 ft 186 kts 14°
2026-05-07 04:46 36.01554 -86.72324 2569 ft 177 kts 14°
2026-05-07 04:47 36.02698 -86.71864 2333 ft 169 kts 14°
2026-05-07 04:47 36.03784 -86.71429 2114 ft 161 kts 16°
2026-05-07 04:47 36.04852 -86.71000 1931 ft 162 kts 17°
2026-05-07 04:47 36.05925 -86.70569 1695 ft 159 kts 18°
2026-05-07 04:48 36.06935 -86.70160 1410 ft 147 kts 17°
2026-05-07 04:48 36.07870 -86.69786 1150 ft 133 kts 17°
2026-05-07 04:48 36.08722 -86.69444 934 ft 126 kts 20°
2026-05-07 04:48 36.09540 -86.69100 789 ft 124 kts 17°
2026-05-07 04:49 36.10367 -86.68779 636 ft 125 kts 17°
2026-05-07 04:49 36.11155 -86.68470 581 ft 105 kts 17°
2026-05-07 04:49 36.11701 -86.68251 582 ft 61 kts 18°
2026-05-07 04:49 36.12023 -86.68122 581 ft 35 kts 18°
2026-05-07 04:50 36.12230 -86.68039 579 ft 27 kts 17°
2026-05-07 04:50 36.12343 -86.67988 581 ft 11 kts 50°
2026-05-07 04:50 36.12332 -86.67898 582 ft 11 kts 109°
2026-05-07 04:50 36.12307 -86.67806 584 ft 11 kts 108°
2026-05-07 04:51 36.12308 -86.67733 584 ft 9 kts 44°
2026-05-07 04:51 36.12366 -86.67704 585 ft 10 kts 19°
2026-05-07 04:51 36.12439 -86.67674 586 ft 12 kts 18°
2026-05-07 04:51 36.12507 -86.67615 586 ft 12 kts 43°
2026-05-07 04:52 36.12567 -86.67545 584 ft 12 kts 43°
2026-05-07 04:52 36.12633 -86.67485 583 ft 12 kts 31°
2026-05-07 04:52 36.12698 -86.67442 582 ft 10 kts 28°
2026-05-07 04:52 36.12755 -86.67386 580 ft 11 kts 43°
2026-05-07 04:53 36.12820 -86.67310 581 ft 14 kts 43°
2026-05-07 04:53 36.12876 -86.67247 580 ft 6 kts 47°
2026-05-07 04:53 36.12890 -86.67202 575 ft 6 kts 83°
2026-05-07 04:53 36.12893 -86.67153 576 ft 1 kts 85°